Вернуться в каталог

STARLINK-3700

АктивенСвязьVLEO
NORAD 51956·PAYLOAD·🇺🇸 United States

Запущен Mar 9, 2022 с Cape Canaveral Space Force Station

Loading…

Ближайшие Пролёты (ближайшие 24 часа)

TLE

СвежийSource: CelesTrak SupGP

Эпоха: Sep 14, 2026, 14:06 UTC

1 51956C 22025A   26257.58798611 -.00023969  00000+0 -77102-3 0  2571
2 51956  53.1574 214.5594 0001229  90.9637 347.4291 15.31703720    11

Отслеживайте STARLINK-3700 в реальном времени с AllMySat

Download on the App Store